Dewpoint
30 34 34 34 32 29 27 28 25 26 28 27 27 25 26 23 22 21 19 25 27 28 29 29 29 29 30 31 32 34 36 37 37 37 37 36 36 37 37 38 38 38 38 39 40 40 41 41 42 43 44 44 44 44 44 44 45 46 47 48 48 49 51 54 58 61 62 62 61 61 61 61 61 62 62 62 63 63 63 63 63 64 64 64 64 63 61
26 32 33 33 30 30 28 27 28 28 26 28 28 28 24 21 21 24 26 27 28 29 29 29 29 30 32 33 34 36 36 37 38 38 37 36 37 37 37 38 38 38 39 39 40 41 41 42 43 43 44 45 45 45 44 45 46 47 47 48 48 49 51 53 58 61 62 62 61 61 61 61 61 62 62 62 62 63 63 63 64 64 64 64 63 63 62
25 31 31 29 29 28 25 25 27 29 30 29 28 23 17 19 19 26 28 29 28 29 30 29 31 32 33 33 34 36 37 37 38 37 37 37 37 37 38 38 38 39 39 40 40 41 42 43 44 45 45 46 46 46 45 45 46 47 47 48 48 49 49 53 59 61 61 61 61 61 61 61 61 62 62 62 62 63 63 63 63 63 63 63 62 62 62
20 30 29 28 29 31 27 25 26 30 29 25 21 22 14 19 21 25 28 27 26 28 30 32 32 32 32 33 35 36 37 37 39 37 37 37 37 37 38 38 39 40 40 40 41 42 43 44 45 46 47 48 48 47 46 46 46 47 48 49 49 50 51 53 60 61 61 61 61 61 61 61 61 62 62 62 62 62 63 63 63 62 62 62 62 62 62
12 26 29 29 30 29 28 27 29 29 24 21 20 19 22 24 22 26 25 25 29 30 32 31 31 31 32 33 35 37 37 39 38 38 38 38 38 38 38 39 40 40 40 41 42 43 44 45 47 49 49 49 49 48 47 47 48 48 49 50 51 52 53 56 60 61 61 61 61 61 61 62 62 62 62 62 62 62 63 63 63 62 62 62 62 62 62
14 31 31 30 28 22 18 26 29 29 25 25 22 24 23 24 29 27 28 29 31 31 31 31 31 32 32 33 36 39 39 40 39 39 39 38 38 38 39 39 41 41 41 42 43 43 45 47 49 49 50 49 49 48 48 48 48 49 51 52 53 54 56 58 61 61 61 61 61 61 62 62 62 62 62 62 62 63 63 63 63 63 63 62 62 63 63
20 30 25 18 15 20 28 30 30 30 29 28 28 28 28 28 28 30 30 31 31 31 31 32 32 32 33 35 38 38 40 39 40 40 39 39 39 39 39 40 41 42 43 43 44 44 46 48 48 48 49 48 49 49 49 48 49 50 51 53 55 57 58 59 60 61 61 61 61 61 61 62 62 62 62 62 62 63 63 63 62 62 62 62 63 63 63
19 18 12 8 7 21 28 29 30 32 29 28 28 27 26 26 28 30 31 31 31 31 32 32 32 33 33 37 38 38 37 40 41 41 40 39 39 39 40 41 42 42 43 43 44 45 47 47 47 48 49 50 49 49 49 49 50 52 54 55 56 57 58 59 60 60 61 61 61 61 61 62 62 62 62 62 62 63 63 63 63 63 63 63 62 62 63
14 12 13 17 21 20 22 24 26 27 27 28 28 23 24 25 29 32 32 32 31 31 32 32 33 33 36 35 34 35 38 39 41 41 40 40 39 40 41 42 43 44 44 44 45 46 45 47 47 48 49 50 50 49 49 49 51 53 55 56 56 56 57 57 59 59 60 61 61 61 61 61 62 62 62 62 63 63 63 63 63 62 62 62 63 63 62
15 15 13 12 10 5 11 21 28 30 31 32 32 28 26 28 29 33 33 31 31 31 32 32 33 36 32 28 30 32 37 40 40 41 41 40 40 40 41 42 43 44 44 45 46 45 45 46 46 47 47 50 50 49 50 52 53 53 53 54 55 56 56 57 57 58 59 60 60 60 61 61 61 62 62 63 63 63 63 63 62 62 63 63 63 63 62
17 15 14 10 8 11 16 24 30 32 34 34 30 23 18 24 27 30 32 31 31 31 32 32 35 33 28 28 30 32 39 40 40 40 40 41 41 41 42 43 43 44 44 45 45 45 45 45 46 46 47 50 51 52 53 52 52 52 52 53 53 54 55 55 56 57 58 59 59 60 60 61 61 61 62 62 62 62 63 63 63 63 62 62 62 62 62
17 12 14 13 12 13 22 25 27 30 34 32 27 19 15 24 26 30 32 32 32 32 32 34 35 32 28 29 31 36 40 40 40 40 41 41 41 41 42 43 44 44 45 45 43 44 44 45 45 46 46 47 49 50 51 51 51 51 52 53 53 54 54 55 55 56 56 57 57 58 59 59 59 60 61 61 61 62 62 63 62 63 62 62 62 62 62
17 19 12 12 17 22 26 28 30 33 34 29 23 19 25 29 30 32 32 32 32 31 32 33 32 33 35 36 37 40 40 40 39 40 41 41 42 41 42 43 44 44 44 44 43 44 44 44 45 45 45 46 47 48 48 49 49 51 53 53 54 54 55 55 55 56 56 56 56 56 57 58 58 59 60 61 61 62 62 62 62 62 63 62 62 62 62
17 14 16 17 20 24 29 29 33 32 27 20 20 27 30 31 32 33 32 32 32 32 32 33 33 35 36 37 38 38 39 39 39 40 40 41 42 42 42 43 44 44 44 44 44 44 44 44 45 45 45 45 45 46 47 47 48 51 54 53 53 54 54 55 56 56 56 56 56 56 57 57 57 57 58 60 60 61 62 62 62 62 62 62 62 62 62
17 14 15 18 14 22 30 31 29 30 23 22 28 29 31 33 32 32 32 32 32 32 32 34 34 35 35 35 37 38 38 39 39 39 40 40 42 42 42 43 44 44 43 44 44 44 44 44 44 45 44 44 44 45 45 46 48 51 53 52 53 54 54 54 55 55 55 55 56 57 56 56 56 57 57 59 60 60 61 61 61 61 62 62 61 61 62
19 17 19 19 23 25 30 31 24 28 31 31 31 32 30 32 32 31 31 32 32 32 33 33 34 34 34 35 36 37 38 38 39 39 39 40 41 42 42 43 44 44 44 44 44 44 44 43 44 44 44 44 44 44 45 46 47 51 53 52 52 52 52 53 53 53 54 55 55 56 56 56 57 57 57 58 59 60 60 60 61 61 61 61 61 61 61
23 22 23 26 28 30 32 32 31 31 32 33 33 33 32 31 32 32 31 32 33 33 33 34 34 34 35 35 36 36 37 38 38 38 39 40 40 42 42 43 44 44 44 44 43 44 44 44 44 44 45 44 44 44 45 46 46 49 52 53 52 51 52 52 52 53 54 54 54 55 56 56 56 57 57 58 58 59 59 60 60 60 61 60 60 60 60
30 32 31 31 32 32 33 34 34 33 32 34 34 33 32 32 33 33 32 33 34 34 34 33 33 34 35 35 35 36 37 37 37 38 39 40 40 41 42 43 43 44 44 44 43 43 43 44 44 45 45 45 44 45 45 45 46 47 50 51 51 51 51 51 52 52 53 53 54 55 56 56 57 57 57 58 58 58 59 59 59 59 59 60 60 60 60
27 24 28 31 32 32 32 33 34 34 34 34 35 33 34 33 33 34 34 34 34 34 34 33 33 34 35 34 35 36 36 36 37 38 38 39 40 40 41 43 43 43 43 43 43 43 42 43 44 44 45 45 45 45 45 45 46 47 48 49 48 49 50 50 50 51 51 52 54 54 55 56 57 57 57 58 58 57 58 58 58 58 59 58 58 59 59
26 26 28 30 32 33 34 34 33 33 34 34 35 35 34 34 35 36 35 34 34 34 34 33 33 34 34 34 34 35 36 36 37 37 38 39 40 40 41 42 43 43 43 43 42 42 42 43 44 44 44 44 44 45 45 46 46 46 47 47 47 47 47 48 48 49 50 46 49 54 55 56 56 56 56 57 58 57 58 58 58 58 58 58 58 58 59
29 30 31 31 31 30 31 32 34 35 34 34 34 35 34 35 35 35 35 34 35 33 34 34 33 33 34 34 34 34 35 36 36 37 38 39 39 40 41 42 42 43 43 43 43 42 42 43 43 43 43 44 44 45 45 46 46 46 46 46 46 46 46 46 46 46 48 50 51 51 52 53 54 55 56 56 56 56 56 57 59 59 59 59 59 60 60
25 26 29 29 25 24 28 30 31 33 35 35 34 34 33 34 34 35 34 34 34 34 35 34 33 32 34 34 33 34 35 35 36 37 38 38 39 40 41 42 42 42 43 43 43 42 42 43 43 43 43 43 44 44 45 46 46 45 46 45 45 45 45 46 45 45 46 50 51 51 51 51 50 49 43 42 46 54 56 50 48 47 48 57 60 61 60
27 30 31 32 31 29 30 31 32 34 35 35 34 33 33 34 35 35 34 34 34 34 35 35 33 32 33 34 33 34 35 35 36 36 37 38 39 40 41 41 41 42 42 42 42 42 42 43 43 43 43 43 43 43 44 45 45 44 45 45 45 44 44 44 43 44 46 48 50 51 51 50 50 50 50 48 43 42 42 44 44 44 42 41 43 49 58
31 32 32 33 31 30 31 32 33 34 36 35 34 34 35 35 35 35 34 34 33 34 34 35 34 34 33 33 32 33 34 35 35 36 37 37 38 39 40 40 41 42 42 42 42 41 42 42 42 43 42 42 43 43 44 44 45 44 44 44 43 43 43 43 43 43 46 47 48 49 50 51 50 49 49 51 52 44 41 41 41 41 42 43 42 41 45
32 33 33 34 33 33 33 33 34 35 37 36 34 34 35 35 36 35 34 34 34 34 34 35 35 34 33 33 32 33 33 34 35 36 36 37 37 38 39 40 41 42 42 42 42 41 41 41 42 42 42 42 42 42 43 44 44 44 43 43 42 42 42 42 44 44 45 46 47 47 47 48 50 50 50 50 50 50 48 42 41 41 41 41 41 42 42
34 33 35 35 34 33 34 34 34 35 37 38 37 37 39 42 37 38 35 34 34 34 34 34 34 34 34 33 33 32 34 34 35 36 36 36 37 37 38 38 40 42 42 41 41 41 41 41 41 42 41 41 41 42 43 43 44 43 43 43 42 42 41 42 43 44 45 45 45 46 46 48 49 50 49 49 50 49 50 51 50 46 42 41 40 42 41
36 36 29 27 27 27 30 32 31 34 36 36 35 35 35 34 40 39 37 36 35 35 36 35 35 34 33 33 33 33 33 34 34 35 35 35 36 36 37 38 39 41 41 41 41 40 40 41 41 41 41 42 41 42 42 42 43 42 42 42 42 39 37 38 43 44 44 44 44 44 45 46 47 48 49 49 48 48 49 49 50 50 50 51 45 39 42
35 35 29 27 26 26 27 30 33 34 35 35 34 34 35 35 35 36 36 36 37 36 35 35 34 33 33 33 32 33 33 33 34 34 35 35 36 36 37 37 38 39 40 40 41 40 40 40 40 41 41 42 41 41 41 41 41 41 42 41 41 41 41 41 42 43 43 44 43 43 44 45 46 46 46 46 47 49 48 48 49 50 50 50 46 42 40
31 32 31 28 28 30 31 34 35 34 33 35 35 34 35 35 35 35 35 35 34 35 35 35 35 35 34 33 33 32 32 33 33 34 34 35 36 36 37 37 38 39 39 39 40 40 40 40 40 40 41 42 41 41 41 41 41 41 41 41 40 40 40 41 41 42 43 43 43 42 40 43 44 44 44 45 45 47 48 49 48 50 51 51 51 51 47
32 34 32 32 33 33 34 33 34 33 33 34 34 35 35 35 35 35 35 35 34 35 35 34 34 33 34 33 33 33 33 32 33 33 34 35 35 36 36 36 38 39 39 39 39 40 40 40 40 40 41 42 41 41 41 41 40 40 40 40 40 39 39 40 41 42 42 42 42 39 42 42 43 43 43 43 44 44 45 46 45 47 49 50 47 49 47
33 34 34 34 33 33 32 32 33 33 33 34 34 34 35 34 34 34 35 34 34 34 34 35 35 34 33 33 33 32 32 32 32 33 33 34 35 35 36 36 36 37 38 39 39 39 39 39 40 40 41 42 41 40 41 41 40 40 40 39 40 37 35 36 37 40 41 41 41 41 41 42 42 41 40 42 42 43 44 44 44 45 45 47 47 46 45
31 31 32 32 32 32 31 31 33 33 33 33 34 34 35 34 34 34 34 35 35 35 35 34 35 35 34 34 33 33 32 32 32 33 33 34 35 35 35 35 35 35 37 39 39 39 39 39 39 39 40 41 41 40 40 41 40 40 39 37 39 39 37 36 39 39 40 39 40 41 40 41 41 41 41 41 42 42 42 43 43 43 44 44 44 44 44
29 28 28 29 30 29 29 29 32 32 32 34 36 35 35 35 34 34 35 35 35 35 34 35 36 36 35 34 33 33 33 31 32 32 33 34 34 35 35 35 36 36 37 38 38 38 39 39 39 39 39 41 41 40 39 40 40 40 39 39 39 38 37 36 37 39 39 39 40 40 40 40 41 41 41 40 41 40 41 42 42 42 42 43 43 44 42
29 29 30 30 30 30 29 30 31 31 32 33 33 34 34 35 35 34 34 34 35 36 36 36 36 36 35 33 33 34 33 32 32 32 33 33 34 34 35 35 35 35 36 37 37 38 38 38 38 38 38 40 40 40 39 39 39 39 39 39 38 38 38 38 38 38 39 38 39 39 40 40 40 40 40 40 40 40 40 40 40 41 42 42 43 43 41
31 32 32 31 32 31 31 33 33 33 33 34 34 35 35 35 35 34 34 35 35 36 36 36 36 36 34 33 34 34 33 32 32 32 32 32 33 34 34 35 35 36 36 37 37 37 37 37 37 37 38 39 40 40 38 38 39 39 39 39 38 38 38 37 38 38 38 39 39 39 39 39 39 38 39 40 40 40 40 39 40 40 41 41 41 42 41
33 32 32 33 33 33 33 33 34 35 36 36 36 36 36 36 35 35 35 35 35 36 36 36 36 36 36 35 34 34 34 33 32 31 32 32 33 33 34 34 34 35 35 36 37 37 36 37 34 34 37 38 39 39 38 37 39 39 38 38 37 37 37 37 38 38 38 38 38 38 39 37 38 38 38 39 39 39 39 39 39 40 40 40 40 41 41
33 32 33 34 33 34 33 34 35 35 36 36 36 35 36 35 36 36 34 35 36 35 35 35 35 35 36 36 36 36 35 35 35 34 33 32 32 32 33 33 33 33 34 36 36 36 36 36 34 34 37 38 38 38 37 34 37 38 39 39 38 38 38 38 38 38 38 38 38 38 37 38 39 39 38 39 39 38 38 39 38 39 39 39 39 39 39
33 33 34 34 34 34 34 35 36 36 35 36 35 35 36 35 35 35 35 35 35 35 35 35 35 35 35 35 36 36 36 36 35 34 34 34 33 33 32 33 33 33 34 34 35 35 35 35 33 35 37 37 37 37 36 34 34 38 38 38 38 38 37 38 38 37 38 38 37 39 38 38 38 38 38 38 38 38 37 38 38 38 38 39 39 38 38
30 32 33 33 33 34 34 35 36 36 36 37 37 36 36 35 35 35 36 35 35 35 35 35 35 35 35 36 35 36 36 36 35 34 34 35 34 33 32 32 33 33 33 34 33 34 34 33 35 35 36 36 36 36 35 34 34 37 38 38 38 38 37 37 37 37 37 38 38 37 38 37 37 37 37 37 38 37 36 36 37 37 37 38 38 38 38
30 31 32 34 34 34 34 35 36 37 37 37 37 37 37 36 36 35 35 35 35 34 35 35 34 34 35 35 35 34 35 34 34 34 34 34 33 32 32 32 33 34 33 31 33 34 33 32 34 35 35 35 35 35 35 34 34 36 37 37 37 37 37 37 37 37 37 37 37 36 37 37 37 36 36 36 37 36 36 36 36 36 36 36 37 37 36
30 31 32 33 33 33 35 36 37 38 38 37 38 38 37 38 36 35 35 36 36 35 34 34 35 34 35 35 35 34 34 34 34 34 33 32 32 30 30 32 33 34 33 32 32 33 33 33 34 34 34 34 35 33 35 34 35 35 36 36 36 36 36 36 36 36 36 36 36 36 36 36 36 36 36 36 35 36 36 36 36 35 36 35 36 36 36
31 31 31 33 33 33 34 36 37 37 37 38 38 38 38 38 37 37 37 36 35 35 34 34 33 35 35 35 34 34 35 35 35 34 33 32 32 31 31 31 33 33 31 31 32 32 33 33 33 32 33 33 33 32 32 34 34 34 34 35 35 36 35 35 35 35 36 36 36 35 35 35 35 35 35 35 35 34 35 35 34 34 35 35 34 35 35
32 31 31 32 33 33 34 35 36 37 37 38 38 38 39 38 38 36 35 34 35 35 34 34 34 34 34 34 34 35 34 34 35 34 34 34 33 33 32 33 33 32 30 31 32 32 33 32 32 32 31 32 32 31 31 33 33 33 33 33 34 34 35 35 35 35 35 35 34 34 34 34 34 34 33 33 34 33 33 34 33 33 33 34 33 33 33
34 33 33 33 33 33 34 34 36 38 38 38 38 38 39 39 38 37 36 35 35 34 35 35 34 34 34 33 34 34 34 33 34 33 33 32 32 33 34 32 31 30 30 30 31 31 32 32 32 32 31 31 30 30 31 31 31 32 32 32 32 33 33 33 33 34 33 33 33 33 33 33 33 33 33 32 32 33 32 33 32 32 32 32 32 32 33
37 35 34 35 34 34 33 34 35 39 37 37 37 37 38 38 39 38 37 35 35 35 34 34 34 34 34 34 34 35 35 33 33 33 32 31 31 31 32 30 30 30 30 30 31 31 31 31 31 30 31 31 30 30 30 30 30 30 30 30 31 31 32 32 32 32 32 33 32 32 32 32 32 32 32 32 32 32 31 31 31 31 31 31 31 31 31
38 37 35 33 35 34 34 37 38 35 38 38 39 38 35 37 38 38 36 36 35 35 35 35 35 34 34 34 32 32 34 33 32 33 34 33 32 31 31 31 31 31 30 30 30 30 30 30 30 30 30 30 29 29 29 29 29 28 28 29 29 29 29 30 30 30 30 31 31 31 31 31 32 32 32 31 31 31 30 30 30 30 30 30 30 30 30
38 37 36 35 37 37 36 37 37 35 35 36 36 35 34 33 35 36 36 36 36 36 36 35 35 34 34 35 36 35 34 34 34 33 32 32 30 30 31 31 31 31 30 30 30 30 30 30 30 30 30 29 29 28 28 28 27 27 27 27 27 27 28 28 28 28 29 29 29 30 30 30 30 31 31 30 30 30 30 29 29 29 29 29 29 29 29
38 36 36 35 35 36 36 36 38 35 36 36 35 34 33 32 33 33 34 35 35 35 34 34 34 34 33 34 36 37 37 36 34 34 32 31 30 30 31 30 30 30 30 30 30 29 30 30 30 30 29 28 28 28 27 27 27 26 26 26 26 26 26 26 26 26 26 27 27 27 28 28 28 29 29 29 29 29 29 29 28 28 28 28 28 28 28
38 37 36 36 35 36 36 37 36 35 35 36 35 35 34 32 31 31 32 31 32 33 34 34 34 34 33 33 34 35 34 35 34 33 33 32 31 31 30 30 29 29 29 29 30 29 29 29 29 29 29 28 28 27 27 26 26 26 25 25 25 24 25 25 25 24 25 25 26 26 26 26 26 26 26 27 27 27 28 28 28 27 27 27 27 27 27
37 36 35 35 35 36 36 37 36 36 37 36 38 36 33 31 29 28 28 28 30 31 33 33 34 33 33 32 33 33 34 34 32 30 32 32 31 31 30 30 30 29 28 29 29 29 28 29 28 28 28 28 28 27 27 26 26 25 25 24 24 24 24 24 24 24 24 24 24 25 25 25 24 25 25 25 24 24 25 25 25 26 26 25 25 25 25
37 36 37 36 35 35 37 37 36 37 37 37 37 36 33 29 28 30 28 28 30 32 32 32 32 32 32 31 31 31 32 32 32 31 32 32 31 30 29 29 29 29 29 28 29 28 28 28 28 28 28 28 28 27 27 26 25 25 24 24 23 23 23 22 22 22 22 23 23 23 23 23 23 23 23 23 23 23 23 23 23 24 24 23 23 23 23
37 37 37 37 37 36 36 37 37 37 37 36 35 33 30 29 28 27 25 26 30 30 30 31 31 30 29 30 32 32 31 32 32 32 31 31 31 30 30 29 29 29 29 29 28 28 28 28 28 27 27 27 27 27 26 26 25 25 25 24 23 23 22 22 21 21 22 22 22 21 22 22 22 22 22 22 22 22 22 22 21 21 22 22 22 22 22